Hourly Weather Barnaul

Today, 6 May, Thursday

Time Temperature Precipitation Wind Pressure Humidity
00:00 +12°C° 0 mm 2 mps 739 mmHg 59%
01:00 +12°C° 0 mm 2 mps 739 mmHg 60%
02:00 +10°C° 0 mm 2 mps 739 mmHg 61%
03:00 +10°C° 0 mm 2 mps 738 mmHg 62%
04:00 +10°C° 0 mm 2 mps 738 mmHg 63%
05:00 +10°C° 0 mm 2 mps 738 mmHg 63%
06:00 +10°C° 0 mm 2 mps 738 mmHg 65%
07:00 +13°C° 0 mm 2 mps 737 mmHg 60%
08:00 +14°C° 0 mm 3 mps 737 mmHg 55%
09:00 +17°C° 0 mm 3 mps 737 mmHg 50%
10:00 +18°C° 0 mm 3 mps 736 mmHg 47%
11:00 +20°C° 0 mm 3 mps 736 mmHg 43%
12:00 +22°C° 0 mm 3 mps 736 mmHg 40%
13:00 +24°C° 0 mm 3 mps 736 mmHg 37%
14:00 +25°C° 0 mm 3 mps 736 mmHg 34%
15:00 +27°C° 0 mm 3 mps 735 mmHg 30%
16:00 +26°C° 0 mm 3 mps 735 mmHg 34%
17:00 +25°C° 0 mm 3 mps 735 mmHg 37%
18:00 +25°C° 0 mm 2 mps 735 mmHg 41%
19:00 +23°C° 0 mm 2 mps 735 mmHg 44%
20:00 +21°C° 0 mm 3 mps 734 mmHg 46%
21:00 +19°C° 0 mm 3 mps 734 mmHg 49%
22:00 +19°C° 0 mm 3 mps 734 mmHg 51%
23:00 +19°C° 0 mm 3 mps 734 mmHg 53%

Tomorrow, 7 May, Friday

Time Temperature Precipitation Wind Pressure Humidity
00:00 +18°C° 0 mm 3 mps 734 mmHg 55%
01:00 +18°C° 0 mm 4 mps 734 mmHg 54%
02:00 +18°C° 0 mm 4 mps 734 mmHg 53%
03:00 +19°C° 0 mm 4 mps 734 mmHg 52%
04:00 +17°C° 0 mm 5 mps 735 mmHg 58%
05:00 +16°C° 0 mm 5 mps 736 mmHg 64%
06:00 +15°C° 0 mm 5 mps 736 mmHg 70%
07:00 +15°C° 0 mm 5 mps 737 mmHg 69%
08:00 +15°C° 0 mm 4 mps 738 mmHg 67%
09:00 +15°C° 0 mm 4 mps 738 mmHg 65%
10:00 +17°C° 0 mm 4 mps 739 mmHg 59%
11:00 +17°C° 0 mm 4 mps 739 mmHg 53%
12:00 +18°C° 0 mm 4 mps 740 mmHg 48%
13:00 +19°C° 0 mm 5 mps 740 mmHg 42%
14:00 +20°C° 0 mm 6 mps 740 mmHg 37%
15:00 +21°C° 0 mm 6 mps 740 mmHg 31%
16:00 +20°C° 0 mm 6 mps 741 mmHg 33%
17:00 +19°C° 0 mm 6 mps 741 mmHg 35%
18:00 +17°C° 0 mm 6 mps 742 mmHg 36%
19:00 +15°C° 0 mm 5 mps 742 mmHg 39%
20:00 +14°C° 0 mm 4 mps 743 mmHg 42%
21:00 +12°C° 0 mm 3 mps 744 mmHg 45%
22:00 +11°C° 0 mm 3 mps 744 mmHg 48%
23:00 +10°C° 0 mm 3 mps 745 mmHg 50%

Day after tomorrow, 8 May, Saturday

Time Temperature Precipitation Wind Pressure Humidity
00:00 +9°C° 0 mm 3 mps 745 mmHg 53%
01:00 +8°C° 0 mm 3 mps 745 mmHg 55%
02:00 +8°C° 0 mm 2 mps 746 mmHg 57%
03:00 +7°C° 0 mm 2 mps 746 mmHg 60%
04:00 +8°C° 0 mm 2 mps 746 mmHg 60%
05:00 +8°C° 0 mm 2 mps 747 mmHg 61%
06:00 +8°C° 0 mm 2 mps 747 mmHg 62%
07:00 +10°C° 0 mm 2 mps 747 mmHg 55%
08:00 +13°C° 0 mm 2 mps 747 mmHg 47%
09:00 +14°C° 0 mm 2 mps 747 mmHg 39%
10:00 +16°C° 0 mm 2 mps 747 mmHg 36%
11:00 +17°C° 0 mm 2 mps 747 mmHg 33%
12:00 +18°C° 0 mm 2 mps 746 mmHg 30%
13:00 +19°C° 0 mm 3 mps 746 mmHg 31%
14:00 +19°C° 0 mm 3 mps 746 mmHg 31%
15:00 +20°C° 0 mm 3 mps 746 mmHg 31%
16:00 +20°C° 0 mm 3 mps 746 mmHg 32%
17:00 +20°C° 0 mm 3 mps 745 mmHg 33%
18:00 +20°C° 0 mm 3 mps 745 mmHg 34%
19:00 +18°C° 0 mm 2 mps 745 mmHg 39%
20:00 +17°C° 0 mm 2 mps 745 mmHg 44%
21:00 +15°C° 0 mm 2 mps 745 mmHg 48%
22:00 +14°C° 0 mm 2 mps 745 mmHg 50%
23:00 +14°C° 0 mm 2 mps 745 mmHg 52%

9 May, Sunday

Time Temperature Precipitation Wind Pressure Humidity
00:00 +13°C° 0 mm 2 mps 745 mmHg 54%
01:00 +13°C° 0 mm 2 mps 745 mmHg 55%
02:00 +12°C° 0 mm 2 mps 745 mmHg 56%
03:00 +12°C° 0 mm 2 mps 745 mmHg 57%
04:00 +12°C° 0 mm 1 mps 745 mmHg 58%
05:00 +12°C° 0 mm 1 mps 745 mmHg 59%
06:00 +13°C° 0 mm 1 mps 745 mmHg 59%
07:00 +14°C° 0 mm 1 mps 745 mmHg 54%
08:00 +16°C° 0 mm 1 mps 745 mmHg 50%
09:00 +18°C° 0 mm 2 mps 745 mmHg 45%
10:00 +19°C° 0 mm 2 mps 745 mmHg 42%
11:00 +20°C° 0 mm 2 mps 745 mmHg 40%
12:00 +21°C° 0 mm 3 mps 745 mmHg 37%
13:00 +22°C° 0 mm 3 mps 745 mmHg 36%
14:00 +22°C° 0 mm 4 mps 744 mmHg 35%
15:00 +22°C° 0 mm 4 mps 744 mmHg 33%
16:00 +21°C° 0 mm 4 mps 744 mmHg 35%
17:00 +20°C° 0 mm 4 mps 744 mmHg 37%
18:00 +20°C° 0 mm 4 mps 744 mmHg 39%
19:00 +18°C° 0 mm 4 mps 744 mmHg 43%
20:00 +15°C° 0 mm 4 mps 744 mmHg 47%
21:00 +13°C° 0 mm 4 mps 744 mmHg 51%
22:00 +12°C° 0 mm 4 mps 744 mmHg 51%
23:00 +11°C° 0 mm 4 mps 744 mmHg 52%

10 May, Monday

Time Temperature Precipitation Wind Pressure Humidity
00:00 +11°C° 0 mm 4 mps 743 mmHg 53%
01:00 +10°C° 0 mm 4 mps 743 mmHg 53%
02:00 +8°C° 0 mm 4 mps 743 mmHg 54%
03:00 +7°C° 0 mm 4 mps 742 mmHg 55%
04:00 +7°C° 0 mm 4 mps 742 mmHg 55%
05:00 +8°C° 0 mm 5 mps 742 mmHg 55%
06:00 +8°C° 0 mm 5 mps 742 mmHg 55%
07:00 +9°C° 0 mm 5 mps 742 mmHg 52%
08:00 +9°C° 0 mm 5 mps 741 mmHg 49%
09:00 +10°C° 0 mm 6 mps 741 mmHg 46%
10:00 +11°C° 0 mm 6 mps 741 mmHg 44%
11:00 +13°C° 0 mm 6 mps 740 mmHg 42%
12:00 +14°C° 0 mm 6 mps 740 mmHg 41%
13:00 +15°C° 0 mm 6 mps 740 mmHg 39%
14:00 +16°C° 0 mm 6 mps 739 mmHg 37%
15:00 +19°C° 0 mm 6 mps 739 mmHg 36%
16:00 +17°C° 0 mm 6 mps 738 mmHg 37%
17:00 +17°C° 0 mm 6 mps 738 mmHg 38%
18:00 +16°C° 0 mm 5 mps 738 mmHg 40%
19:00 +15°C° 0 mm 5 mps 738 mmHg 43%
20:00 +13°C° 0 mm 5 mps 738 mmHg 46%
21:00 +12°C° 0 mm 4 mps 738 mmHg 48%
22:00 +12°C° 0 mm 5 mps 738 mmHg 49%
23:00 +10°C° 0 mm 5 mps 738 mmHg 50%

11 May, Tuesday

Time Temperature Precipitation Wind Pressure Humidity
00:00 +10°C° 0 mm 5 mps 738 mmHg 51%
01:00 +9°C° 0 mm 5 mps 738 mmHg 55%
02:00 +8°C° 0 mm 5 mps 738 mmHg 59%
03:00 +7°C° 0 mm 5 mps 738 mmHg 63%
04:00 +7°C° 0 mm 5 mps 738 mmHg 65%
05:00 +7°C° 0 mm 5 mps 739 mmHg 67%
06:00 +6°C° 0 mm 5 mps 739 mmHg 70%
07:00 +8°C° 0 mm 5 mps 739 mmHg 64%
08:00 +10°C° 0 mm 5 mps 740 mmHg 58%
09:00 +11°C° 0 mm 6 mps 740 mmHg 52%
10:00 +13°C° 0 mm 6 mps 741 mmHg 47%
11:00 +14°C° 0 mm 6 mps 741 mmHg 41%
12:00 +15°C° 0 mm 6 mps 741 mmHg 35%
13:00 +16°C° 0 mm 6 mps 741 mmHg 33%
14:00 +16°C° 0 mm 6 mps 741 mmHg 31%
15:00 +16°C° 0 mm 6 mps 742 mmHg 29%
16:00 +16°C° 0 mm 6 mps 742 mmHg 31%
17:00 +15°C° 0 mm 5 mps 742 mmHg 33%
18:00 +15°C° 0 mm 5 mps 742 mmHg 35%
19:00 +13°C° 0 mm 4 mps 743 mmHg 40%
20:00 +12°C° 0 mm 3 mps 743 mmHg 45%
21:00 +10°C° 0 mm 3 mps 743 mmHg 50%
22:00 +10°C° 0 mm 2 mps 743 mmHg 53%
23:00 +9°C° 0 mm 2 mps 743 mmHg 57%
Show more